Погода в Миноте

США     48°13′57″N   101°17′44″W
темп.,
°C
ветер,
м/с
пор.,
м/с
влажн.,
%
обл.,
%
осадки,
мм/ч
давл.,
гПа
погр.,
м
19 апреля, пн
пн1901:00−2ссв476154 0.1 1027669
04:00−3ссз47655 0.0 1028756
07:00−4ссз37655 0.0 1028538
10:00−1ссз6747100 0.1 10271713
13:00+2ссз6833100 0.1 10252485
16:00+3ссз6835100 0.0 10242611
19:00+3с4637100 0.0 10231852
22:000сз225166 0.0 102428
20 апреля, вт
вт2001:00−1ссз375384 0.0 1024250
04:00−1ссз3661100 0.0 1024248
07:00−2ссз3674100 0.0 1025568
10:00−2св688297 1.2 1026749
13:00+2с5643100 1.4 10262147
16:00+2ссз6738100 0.0 10252027
19:00+2с6841100 0.0 10251781
22:00−1ссз38585 0.0 1026224
21 апреля, ср
ср2101:00−2сз35635 0.0 1026128
04:00−2з35635 0.0 1026108
07:00−2з36645 0.0 1025130
10:00+4зсз45435 0.0 1024914
13:00+8зсз44355 0.0 10221540
16:00+11зсз45305 0.0 10191884
19:00+11з35290 0.0 10171763
22:00+6юз34420 0.0 101756
22 апреля, чт
чт2201:00+5ююз410470 0.0 1016160
04:00+4юз511505 0.0 1015188
07:00+3юз512504 0.0 1014207
10:00+10юз611370 0.0 1012710
13:00+14ююз79270 0.0 10091692
16:00+16юз68200 0.0 10062390
19:00+17юз47235 0.0 10042854
22:00+11ююз453343 0.0 100469
23 апреля, пт
пт2301:00+8ссз7134699 0.0 1005366
04:00+2с8138199 0.0 1009621
07:000с81176100 0.0 1013806
10:00−1ссв7981100 0.2 1016872
13:00−2с7986100 1.8 1018808
16:00−1с6772100 0.9 10191129
19:00+1ссв3651100 1.0 10191409
22:00−2с226132 0.0 102125